Date String (YYYY-MM-DD hh:mm:ss) UTC,Instrument flags,Ambient pressure (hPa),Sample flow (lpm),Bypass flow (lpm),Sample temperature (°C),Ambient temperature (°C),ASC tube jacket temperature (°C),LED temperature (°C),Box temperature (°C),Sample RH (%),Span deviation,Mass concentration (μg/m³),Mass concentration (μg/m³),Mass concentration (μg/m³)
DateTimeUTC,F1_M11,P_M11,Q1_M11,Q2_M11,T1_M11,T2_M11,T3_M11,T4_M11,T5_M11,U1_M11,ZSPAN_M11,X0_M11,X2_M11,X1_M11
2021-08-28 04:00:00,,0824.1,5.00,0.00,29.1,27.3,00.0,38.2,30.8,19.1,0002.7,0010.98,0004.93,0004.30
2021-08-28 04:01:00,,0824.1,5.00,0.00,29.1,27.6,00.0,38.2,30.9,18.9,0002.2,0011.09,0004.94,0004.28
2021-08-28 04:02:00,,0824.1,4.99,0.00,29.2,27.8,00.0,38.3,31.0,18.7,0002.0,0011.09,0004.95,0004.26
2021-08-28 04:03:00,,0824.1,5.01,0.00,29.2,28.0,00.0,38.3,31.1,18.7,0001.9,0011.70,0004.94,0004.24
2021-08-28 04:04:00,,0824.1,5.01,0.00,29.3,28.2,00.0,38.3,31.1,18.8,0002.1,0011.85,0004.90,0004.22
2021-08-28 04:05:00,,0824.1,5.00,0.00,29.3,28.3,00.0,38.3,31.2,18.7,0001.9,0010.85,0004.88,0004.22
2021-08-28 04:06:00,,0824.1,4.99,0.00,29.3,28.5,00.0,38.3,31.2,18.5,0001.8,0010.72,0004.87,0004.22
2021-08-28 04:07:00,,0824.1,5.00,0.00,29.4,28.6,00.0,38.3,31.3,18.4,0002.0,0010.58,0004.87,0004.22
2021-08-28 04:08:00,,0824.1,5.01,0.00,29.4,28.7,00.0,38.4,31.3,18.2,0002.4,0010.83,0004.86,0004.22
2021-08-28 04:09:00,,0824.1,5.00,0.00,29.5,28.7,00.0,38.4,31.4,18.0,0002.3,0010.85,0004.85,0004.22
2021-08-28 04:10:00,,0824.0,5.00,0.00,29.5,28.4,00.0,38.4,31.3,17.8,0002.3,0011.09,0004.87,0004.21
2021-08-28 04:11:00,,0824.1,5.01,0.00,29.4,26.4,00.0,38.4,30.8,17.9,0002.3,0011.55,0004.85,0004.21
2021-08-28 04:12:00,,0824.1,4.99,0.00,29.2,25.3,00.0,38.4,30.5,18.1,0002.6,0011.83,0004.82,0004.21
2021-08-28 04:13:00,,0824.0,5.01,0.00,29.1,25.6,00.0,38.4,30.5,18.1,0002.8,0012.09,0004.81,0004.22
2021-08-28 04:14:00,,0824.0,5.00,0.00,29.1,26.1,00.0,38.3,30.6,18.3,0002.9,0011.97,0004.85,0004.22
2021-08-28 04:15:00,,0824.0,5.00,0.00,29.1,26.6,00.0,38.3,30.7,18.4,0002.7,0011.54,0004.84,0004.21
2021-08-28 04:16:00,,0824.0,4.99,0.00,29.1,27.0,00.0,38.3,30.8,18.3,0002.6,0011.70,0004.84,0004.20
2021-08-28 04:17:00,,0824.0,5.00,0.00,29.1,27.4,00.0,38.2,30.9,18.2,0002.8,0011.72,0004.83,0004.19
2021-08-28 04:18:00,,0824.1,5.01,0.00,29.1,27.7,00.0,38.2,31.0,18.1,0003.0,0011.42,0004.77,0004.17
2021-08-28 04:19:00,,0824.0,4.99,0.00,29.2,27.9,00.0,38.3,31.0,18.0,0002.9,0011.38,0004.73,0004.15
2021-08-28 04:20:00,,0824.0,5.00,0.00,29.2,28.1,00.0,38.3,31.1,18.0,0003.1,0011.25,0004.71,0004.14
2021-08-28 04:21:00,,0824.0,4.99,0.00,29.3,28.2,00.0,38.3,31.1,18.1,0003.2,0011.13,0004.68,0004.12
2021-08-28 04:22:00,,0824.1,5.00,0.00,29.3,28.4,00.0,38.3,31.2,18.1,0003.4,0010.61,0004.66,0004.12
2021-08-28 04:23:00,,0824.1,5.01,0.00,29.4,28.5,00.0,38.3,31.2,17.8,0003.2,0009.90,0004.64,0004.10
2021-08-28 04:24:00,,0824.1,4.99,0.00,29.4,28.6,00.0,38.3,31.3,17.7,0003.4,0009.61,0004.61,0004.09
2021-08-28 04:25:00,,0824.1,5.00,0.00,29.5,28.7,00.0,38.4,31.3,17.6,0003.7,0009.61,0004.58,0004.09
2021-08-28 04:26:00,,0824.1,4.99,0.00,29.5,28.7,00.0,38.4,31.4,17.1,0003.8,0009.54,0004.56,0004.08
2021-08-28 04:27:00,,0824.0,5.01,0.00,29.5,27.6,00.0,38.4,31.1,17.1,0004.0,0009.30,0004.53,0004.07
2021-08-28 04:28:00,,0824.0,4.99,0.00,29.4,26.4,00.0,38.4,30.8,17.0,0003.8,0009.12,0004.48,0004.04
2021-08-28 04:29:00,,0824.0,5.00,0.00,29.3,26.5,00.0,38.4,30.8,17.1,0003.7,0009.06,0004.46,0004.03
2021-08-28 04:30:00,,0824.0,5.00,0.00,29.2,26.8,00.0,38.4,30.8,17.1,0003.7,0008.67,0004.46,0004.01
2021-08-28 04:31:00,,0824.0,5.00,0.00,29.2,27.2,00.0,38.4,30.9,17.2,0003.7,0008.68,0004.45,0004.01
2021-08-28 04:32:00,,0824.0,5.00,0.00,29.3,27.5,00.0,38.4,31.0,17.2,0003.6,0008.58,0004.44,0004.01
2021-08-28 04:33:00,,0824.1,4.99,0.00,29.3,27.8,00.0,38.4,31.1,17.4,0003.5,0009.52,0004.41,0003.99
2021-08-28 04:34:00,,0824.0,5.00,0.00,29.3,28.0,00.0,38.4,31.1,17.3,0003.7,0009.46,0004.39,0003.99
2021-08-28 04:35:00,,0824.0,5.00,0.00,29.4,28.2,00.0,38.4,31.2,17.3,0003.5,0009.37,0004.38,0003.98
2021-08-28 04:36:00,,0824.0,5.00,0.00,29.4,28.4,00.0,38.4,31.2,17.2,0003.1,0008.97,0004.37,0003.97
2021-08-28 04:37:00,,0824.1,4.99,0.00,29.4,28.5,00.0,38.4,31.3,16.8,0003.0,0009.07,0004.36,0003.97
2021-08-28 04:38:00,,0824.1,5.00,0.00,29.5,28.6,00.0,38.4,31.3,16.6,0003.0,0009.62,0004.39,0003.96
2021-08-28 04:39:00,,0824.1,5.02,0.00,29.5,28.7,00.0,38.5,31.4,16.2,0003.0,0009.82,0004.37,0003.96
2021-08-28 04:40:00,,0824.1,5.00,0.00,29.6,28.7,00.0,38.5,31.4,16.0,0002.9,0010.25,0004.38,0003.95
2021-08-28 04:41:00,,0824.1,5.02,0.00,29.5,27.3,00.0,38.5,31.0,16.1,0002.7,0011.52,0004.40,0003.94
2021-08-28 04:42:00,,0824.1,4.98,0.00,29.3,25.5,00.0,38.5,30.6,16.2,0002.6,0011.51,0004.39,0003.93
2021-08-28 04:43:00,,0824.1,5.00,0.00,29.2,25.4,00.0,38.4,30.5,16.2,0002.4,0011.69,0004.36,0003.91
2021-08-28 04:44:00,,0824.1,5.01,0.00,29.1,25.9,00.0,38.4,30.6,16.3,0002.3,0010.53,0004.34,0003.89
2021-08-28 04:45:00,,0824.0,5.00,0.00,29.1,26.4,00.0,38.3,30.7,16.4,0002.2,0010.52,0004.32,0003.88
2021-08-28 04:46:00,,0824.1,4.98,0.00,29.1,26.9,00.0,38.3,30.8,16.3,0001.8,0010.79,0004.29,0003.85
2021-08-28 04:47:00,,0824.1,5.02,0.00,29.1,27.2,00.0,38.3,30.9,16.5,0002.3,0010.80,0004.25,0003.82
2021-08-28 04:48:00,,0824.1,4.99,0.00,29.2,27.6,00.0,38.3,30.9,17.1,0002.3,0010.79,0004.23,0003.80
2021-08-28 04:49:00,,0824.1,5.01,0.00,29.2,27.8,00.0,38.3,31.0,16.7,0002.3,0010.24,0004.19,0003.80
2021-08-28 04:50:00,,0824.1,5.00,0.00,29.2,28.0,00.0,38.3,31.0,16.4,0002.4,0009.83,0004.17,0003.79
2021-08-28 04:51:00,,0824.0,4.99,0.00,29.3,28.2,00.0,38.3,31.1,16.1,0002.8,0009.86,0004.17,0003.80
2021-08-28 04:52:00,,0824.1,5.00,0.00,29.3,28.3,00.0,38.3,31.2,15.9,0003.1,0008.28,0004.16,0003.79
2021-08-28 04:53:00,,0824.1,5.00,0.00,29.4,28.4,00.0,38.3,31.2,15.8,0003.3,0008.16,0004.12,0003.79
2021-08-28 04:54:00,,0824.1,5.01,0.00,29.4,28.5,00.0,38.4,31.3,15.8,0003.7,0008.16,0004.18,0003.79
2021-08-28 04:55:00,,0824.1,5.00,0.00,29.5,28.6,00.0,38.4,31.3,16.4,0003.6,0008.08,0004.21,0003.80
2021-08-28 04:56:00,,0824.1,5.00,0.00,29.5,28.7,00.0,38.4,31.4,17.7,0003.2,0008.33,0004.23,0003.80
2021-08-28 04:57:00,,0824.1,5.00,0.00,29.5,28.8,00.0,38.5,31.4,17.1,0003.4,0008.16,0004.27,0003.82
2021-08-28 04:58:00,,0824.1,5.02,0.00,29.6,28.8,00.0,38.5,31.5,17.0,0003.2,0008.35,0004.28,0003.85
2021-08-28 04:59:00,,0824.1,5.00,0.00,29.6,27.6,00.0,38.5,31.2,16.9,0003.1,0008.35,0004.26,0003.85
